Skip Page Navigation
NASA JPL Caltech
NASA Logo - Jet Propulsion Laboratory + View the NASA Portal
+ Near-Earth Object (NEO) Program
Search JPL
JPL Home Earth Solar System Stars & Galaxies Technology
JPL Solar System Dynamics
BODIES ORBITS EPHEMERIDES TOOLS PHYSICAL DATA DISCOVERY FAQ SITE MAP
JPL Small-Body Database Browser
Search: [ help ]  
24832 (1995 SU5)
Classification: Main-belt Asteroid          SPK-ID: 2024832
Ephemeris | Orbit Diagram | Orbital Elements | Physical Parameters | Discovery Circumstances | Close-Approach Data ]

[ show orbit diagram ]
Orbital Elements at Epoch 2457000.5 (2014-Dec-09.0) TDB
Reference: JPL 9 (heliocentric ecliptic J2000)
 Element Value Uncertainty (1-sigma)   Units 
e .1605784738193891 7.5492e-08  
a 2.369043525587691 1.8928e-08 AU
q 1.988626131837115 1.8063e-07 AU
i 7.390790850679585 8.7886e-06 deg
node 203.6409972946849 3.9637e-05 deg
peri 27.96240856667191 4.4899e-05 deg
M 245.6196391579715 2.0391e-05 deg
tp 2457423.662279865163
(2016-Feb-05.16227987)
7.6872e-05 JED
period 1331.858193399602
3.65
1.5962e-05
4.37e-08
d
yr
n .2702990466883646 3.2395e-09 deg/d
Q 2.749460919338267 2.1968e-08 AU
  Orbit Determination Parameters
   # obs. used (total)      659  
   data-arc span      8486 days (23.23 yr)  
   first obs. used      1991-10-06  
   last obs. used      2014-12-30  
   planetary ephem.      DE431  
   SB-pert. ephem.      SB431-BIG16  
   condition code      0  
   fit RMS      .53472  
   data source      ORB  
   producer      Otto Matic  
   solution date      2015-Feb-04 14:08:35  

Additional Information
 Earth MOID = .983542 AU 
 T_jup = 3.517 
[ show covariance matrix ]

Ephemeris | Orbit Diagram | Orbital Elements | Physical Parameters | Discovery Circumstances | Close-Approach Data ]

Physical Parameter Table
Parameter Symbol Value Units Sigma Reference Notes
absolute magnitude H 15.2 mag n/a MPO270296  

24832 (1995 SU5)          Discovered 1995-Sep-25 by Beijing Schmidt CCD Asteroid Program at Xinglong (327)
Reference: 20010606/Numbers.arcLast Updated: 2004-04-19

[ show close-approach data ]
Alternate Designations
 1995 SU5 = 1998 QZ80 
Ephemeris | Orbit Diagram | Orbital Elements | Physical Parameters | Discovery Circumstances | Close-Approach Data ]
ABOUT SSD CREDITS/AWARDS PRIVACY/COPYRIGHT GLOSSARY LINKS
FirstGov 2015-Mar-06 07:31 UT
(server date/time)  
NASA Home Page
Site Manager:   Ryan S. Park
Webmaster  Alan B. Chamberlin